,,PA_Meas_PMT16A,,PR_Meas_QMR101_102,,RH_Meas_QMH101,,SR_Meas_QMS101,,TA_Meas_QMH101,,GenWind,,GenWind,
time,status,PA,status,PR,status,RH,status,SR,status,TA,status,DirAvg,status,SpdAvg,
2010-04-01, 00:00:04,VALID,919.355,VALID,0.2,VALID,97.6178,VALID,0,VALID,19.5078,VALID,131,VALID,1.12617,
2010-04-01, 00:01:04,VALID,919.326,VALID,0,VALID,97.6483,VALID,0,VALID,19.5273,VALID,131,VALID,0.834375,
2010-04-01, 00:02:04,VALID,919.33,VALID,0,VALID,97.6331,VALID,0,VALID,19.5078,VALID,137,VALID,1.66992,
2010-04-01, 00:03:04,VALID,919.338,VALID,0,VALID,97.656,VALID,0,VALID,19.5078,VALID,101,VALID,1.23008,
2010-04-01, 00:04:04,VALID,919.34,VALID,0,VALID,97.6407,VALID,0,VALID,19.5078,VALID,110,VALID,1.2875,
2010-04-01, 00:05:04,VALID,919.373,VALID,0,VALID,97.6331,VALID,0,VALID,19.5078,VALID,120,VALID,1.49961,
2010-04-01, 00:06:04,VALID,919.354,VALID,0,VALID,97.6636,VALID,0,VALID,19.5078,VALID,131,VALID,1.30703,
2010-04-01, 00:07:04,VALID,919.331,VALID,0,VALID,97.6483,VALID,0,VALID,19.5078,VALID,125,VALID,1.00469,
2010-04-01, 00:08:04,VALID,919.325,VALID,0,VALID,97.656,VALID,0,VALID,19.5063,VALID,169,VALID,0.228125,
2010-04-01, 00:09:04,VALID,919.279,VALID,0,VALID,97.656,VALID,0,VALID,19.5273,VALID,158,VALID,1.35508,
2010-04-01, 00:10:04,VALID,919.274,VALID,0,VALID,97.6788,VALID,0,VALID,19.5078,VALID,130,VALID,0.997656,
2010-04-01, 00:11:04,VALID,919.24,VALID,0,VALID,97.6636,VALID,0,VALID,19.4673,VALID,115,VALID,1.35742,
2010-04-01, 00:12:04,VALID,919.234,VALID,0,VALID,97.656,VALID,0,VALID,19.5078,VALID,140,VALID,1.01914,
2010-04-01, 00:13:04,VALID,919.208,VALID,0,VALID,97.6788,VALID,0.107441,VALID,19.5078,VALID,129,VALID,1.28633,
2010-04-01, 00:14:04,VALID,919.219,VALID,0,VALID,97.6788,VALID,0,VALID,19.5078,VALID,125,VALID,0.611328,
2010-04-01, 00:15:04,VALID,919.176,VALID,0,VALID,97.656,VALID,0,VALID,19.5273,VALID,125,VALID,0.382031,
2010-04-01, 00:16:04,VALID,919.19,VALID,0,VALID,97.6712,VALID,0,VALID,19.5468,VALID,125,VALID,0.668359,
2010-04-01, 00:17:04,VALID,919.174,VALID,0,VALID,97.6636,VALID,0,VALID,19.5078,VALID,124,VALID,0.860937,
2010-04-01, 00:18:04,VALID,919.171,VALID,0,VALID,97.656,VALID,0,VALID,19.4883,VALID,109,VALID,0.809375,
2010-04-01, 00:19:04,VALID,919.173,VALID,0.2,VALID,97.6712,VALID,0,VALID,19.4883,VALID,110,VALID,0.75,
2010-04-01, 00:20:04,VALID,919.182,VALID,0,VALID,97.6636,VALID,0,VALID,19.5078,VALID,109,VALID,0.359375,
2010-04-01, 00:21:04,VALID,919.207,VALID,0,VALID,97.7017,VALID,0,VALID,19.5078,VALID,110,VALID,0.252734,
2010-04-01, 00:22:04,VALID,919.204,VALID,0,VALID,97.6788,VALID,0,VALID,19.5273,VALID,109,VALID,0.239453,
2010-04-01, 00:23:04,VALID,919.225,VALID,0,VALID,97.6712,VALID,0,VALID,19.5663,VALID,109,VALID,0.172266,
2010-04-01, 00:24:04,VALID,919.198,VALID,0,VALID,97.656,VALID,0,VALID,19.5663,VALID,110,VALID,0.333203,
2010-04-01, 00:25:04,VALID,919.236,VALID,0,VALID,97.6712,VALID,0,VALID,19.6248,VALID,110,VALID,0.0417969,
2010-04-01, 00:26:04,VALID,919.17,VALID,0,VALID,97.656,VALID,0,VALID,19.6248,VALID,110,VALID,0.345703,
2010-04-01, 00:27:05,VALID,919.167,VALID,0,VALID,97.6712,VALID,0,VALID,19.6443,VALID,109,VALID,0.378125,
2010-04-01, 00:28:05,VALID,919.138,VALID,0,VALID,97.6636,VALID,0,VALID,19.6248,VALID,109,VALID,0.642187,
2010-04-01, 00:29:05,VALID,919.145,VALID,0,VALID,97.6788,VALID,0,VALID,19.6053,VALID,110,VALID,0.630469,
2010-04-01, 00:30:05,VALID,919.111,VALID,0,VALID,97.656,VALID,0,VALID,19.5843,VALID,110,VALID,0.846875,
2010-04-01, 00:31:05,VALID,919.126,VALID,0,VALID,97.6865,VALID,0,VALID,19.5453,VALID,110,VALID,0.211719,
2010-04-01, 00:32:05,VALID,919.118,VALID,0,VALID,97.6636,VALID,0,VALID,19.5468,VALID,110,VALID,0.0667969,
2010-04-01, 00:33:05,VALID,919.109,VALID,0,VALID,97.6712,VALID,0.107441,VALID,19.5468,VALID,110,VALID,0.216406,
2010-04-01, 00:34:05,VALID,919.133,VALID,0,VALID,97.6483,VALID,0,VALID,19.5258,VALID,110,VALID,0.350391,
2010-04-01, 00:35:05,VALID,919.118,VALID,0,VALID,97.6865,VALID,0,VALID,19.5273,VALID,110,VALID,0.393359,
2010-04-01, 00:36:05,VALID,919.123,VALID,0,VALID,97.6788,VALID,0,VALID,19.5273,VALID,110,VALID,0.408594,
2010-04-01, 00:37:05,VALID,919.116,VALID,0,VALID,97.6865,VALID,0,VALID,19.5273,VALID,110,VALID,0.542969,
2010-04-01, 00:38:05,VALID,919.117,VALID,0,VALID,97.6712,VALID,0.107441,VALID,19.5273,VALID,110,VALID,0.665234,
2010-04-01, 00:39:05,VALID,919.104,VALID,0,VALID,97.6636,VALID,0,VALID,19.5468,VALID,110,VALID,0.800781,
2010-04-01, 00:40:05,VALID,919.085,VALID,0,VALID,97.6712,VALID,0,VALID,19.5258,VALID,110,VALID,0.628125,
2010-04-01, 00:41:05,VALID,919.062,VALID,0,VALID,97.6865,VALID,0,VALID,19.5468,VALID,110,VALID,0.517578,
2010-04-01, 00:42:05,VALID,919.057,VALID,0,VALID,97.6788,VALID,0,VALID,19.5663,VALID,110,VALID,0.480078,
2010-04-01, 00:43:05,VALID,919.043,VALID,0,VALID,97.6712,VALID,0.107441,VALID,19.5468,VALID,110,VALID,0.475,
2010-04-01, 00:44:05,VALID,919.054,VALID,0,VALID,97.6712,VALID,0,VALID,19.5273,VALID,110,VALID,0.476172,
2010-04-01, 00:45:05,VALID,918.998,VALID,0,VALID,97.6788,VALID,0,VALID,19.5468,VALID,110,VALID,0.446875,
2010-04-01, 00:46:05,VALID,918.984,VALID,0,VALID,97.6788,VALID,0,VALID,19.5273,VALID,110,VALID,0.830859,
2010-04-01, 00:47:05,VALID,918.965,VALID,0,VALID,97.6788,VALID,0,VALID,19.5078,VALID,110,VALID,0.646875,
2010-04-01, 00:48:05,VALID,918.961,VALID,0,VALID,97.6712,VALID,0,VALID,19.5078,VALID,110,VALID,0.619141,
2010-04-01, 00:49:05,VALID,918.922,VALID,0,VALID,97.6636,VALID,0,VALID,19.5078,VALID,110,VALID,0.692969,
2010-04-01, 00:50:05,VALID,918.893,VALID,0,VALID,97.6788,VALID,0,VALID,19.4688,VALID,110,VALID,0.952344,
2010-04-01, 00:51:05,VALID,918.88,VALID,0,VALID,97.6788,VALID,0,VALID,19.4688,VALID,110,VALID,1.0793,
2010-04-01, 00:52:05,VALID,918.86,VALID,0,VALID,97.7017,VALID,0,VALID,19.4688,VALID,110,VALID,0.900781,
2010-04-01, 00:53:05,VALID,918.87,VALID,0,VALID,97.6941,VALID,0,VALID,19.4703,VALID,110,VALID,0.559766,
2010-04-01, 00:54:05,VALID,918.841,VALID,0,VALID,97.6865,VALID,0,VALID,19.4478,VALID,110,VALID,0.529688,
2010-04-01, 00:55:05,VALID,918.858,VALID,0,VALID,97.6941,VALID,0,VALID,19.4883,VALID,110,VALID,0.00351562,
2010-04-01, 00:56:05,VALID,918.852,VALID,0,VALID,97.7017,VALID,0,VALID,19.5273,VALID,110,VALID,0.369922,
2010-04-01, 00:57:05,VALID,918.828,VALID,0,VALID,97.6788,VALID,0,VALID,19.5273,VALID,110,VALID,0.486328,
2010-04-01, 00:58:05,VALID,918.832,VALID,0,VALID,97.6788,VALID,0,VALID,19.5273,VALID,110,VALID,0.349219,
2010-04-01, 00:59:05,VALID,918.833,VALID,0,VALID,97.7017,VALID,0,VALID,19.5468,VALID,110,VALID,0.303516,
2010-04-01, 01:00:05,VALID,918.823,VALID,0,VALID,97.6865,VALID,0,VALID,19.5468,VALID,110,VALID,0.623438,
2010-04-01, 01:01:05,VALID,918.831,VALID,0,VALID,97.7093,VALID,0,VALID,19.5273,VALID,110,VALID,0.620703,
2010-04-01, 01:02:05,VALID,918.857,VALID,0,VALID,97.6941,VALID,0,VALID,19.5078,VALID,110,VALID,0.509766,
2010-04-01, 01:03:05,VALID,918.851,VALID,0,VALID,97.7017,VALID,0,VALID,19.5468,VALID,110,VALID,0.823047,
2010-04-01, 01:04:05,VALID,918.826,VALID,0,VALID,97.6865,VALID,0,VALID,19.5078,VALID,110,VALID,0.702344,
2010-04-01, 01:05:05,VALID,918.848,VALID,0,VALID,97.6941,VALID,0,VALID,19.5258,VALID,110,VALID,0.393359,
2010-04-01, 01:06:05,VALID,918.835,VALID,0,VALID,97.7093,VALID,0,VALID,19.5468,VALID,110,VALID,0.552734,
2010-04-01, 01:07:05,VALID,918.87,VALID,0,VALID,97.7017,VALID,0,VALID,19.5273,VALID,110,VALID,0.0734375,
2010-04-01, 01:08:05,VALID,918.861,VALID,0,VALID,97.7017,VALID,0,VALID,19.5663,VALID,110,VALID,0.0683594,
2010-04-01, 01:09:05,VALID,918.854,VALID,0,VALID,97.6865,VALID,0,VALID,19.5858,VALID,110,VALID,0.710547,
2010-04-01, 01:10:05,VALID,918.845,VALID,0,VALID,97.7093,VALID,0,VALID,19.5468,VALID,110,VALID,0.613672,
2010-04-01, 01:11:05,VALID,918.844,VALID,0,VALID,97.7017,VALID,0,VALID,19.5273,VALID,110,VALID,0.31875,
2010-04-01, 01:12:05,VALID,918.83,VALID,0,VALID,97.6865,VALID,0,VALID,19.5468,VALID,110,VALID,0.371875,
2010-04-01, 01:13:05,VALID,918.819,VALID,0,VALID,97.6865,VALID,0,VALID,19.5663,VALID,110,VALID,0,
2010-04-01, 01:14:05,VALID,918.815,VALID,0,VALID,97.6941,VALID,0,VALID,19.5858,VALID,110,VALID,0.190234,
2010-04-01, 01:15:05,VALID,918.813,VALID,0,VALID,97.6941,VALID,0,VALID,19.5858,VALID,110,VALID,0.363672,
2010-04-01, 01:16:05,VALID,918.77,VALID,0,VALID,97.6788,VALID,0,VALID,19.6053,VALID,110,VALID,0.479688,
2010-04-01, 01:17:05,VALID,918.767,VALID,0,VALID,97.6941,VALID,0,VALID,19.6053,VALID,110,VALID,0.517187,
2010-04-01, 01:18:05,VALID,918.763,VALID,0,VALID,97.7017,VALID,0.107441,VALID,19.6248,VALID,110,VALID,0.417578,
2010-04-01, 01:19:05,VALID,918.751,VALID,0,VALID,97.6941,VALID,0,VALID,19.6053,VALID,110,VALID,0.446484,
2010-04-01, 01:20:05,VALID,918.755,VALID,0,VALID,97.6941,VALID,0,VALID,19.5663,VALID,110,VALID,0.508594,
2010-04-01, 01:21:05,VALID,918.725,VALID,0.2,VALID,97.6865,VALID,0,VALID,19.5468,VALID,110,VALID,0.498437,
2010-04-01, 01:22:05,VALID,918.735,VALID,0,VALID,97.6788,VALID,0,VALID,19.5453,VALID,110,VALID,0.456641,
2010-04-01, 01:23:05,VALID,918.727,VALID,0,VALID,97.6788,VALID,0,VALID,19.5663,VALID,110,VALID,0.432813,
2010-04-01, 01:24:05,VALID,918.716,VALID,0,VALID,97.7017,VALID,0,VALID,19.5663,VALID,110,VALID,0.333203,
2010-04-01, 01:25:05,VALID,918.739,VALID,0,VALID,97.7093,VALID,0,VALID,19.5843,VALID,110,VALID,0,
2010-04-01, 01:26:05,VALID,918.713,VALID,0,VALID,97.7017,VALID,0,VALID,19.6248,VALID,110,VALID,0.398438,
2010-04-01, 01:27:05,VALID,918.743,VALID,0,VALID,97.7017,VALID,0,VALID,19.6458,VALID,110,VALID,0.530469,
2010-04-01, 01:28:05,VALID,918.759,VALID,0,VALID,97.7093,VALID,0,VALID,19.6248,VALID,110,VALID,0.639844,
2010-04-01, 01:29:05,VALID,918.733,VALID,0.2,VALID,97.6941,VALID,0,VALID,19.6248,VALID,110,VALID,0.685938,
2010-04-01, 01:30:05,VALID,918.745,VALID,0,VALID,97.6865,VALID,0,VALID,19.6458,VALID,110,VALID,0.504297,
2010-04-01, 01:31:05,VALID,918.755,VALID,0,VALID,97.7093,VALID,0,VALID,19.6443,VALID,110,VALID,0.439844,
2010-04-01, 01:32:05,VALID,918.752,VALID,0,VALID,97.6788,VALID,0,VALID,19.6638,VALID,111,VALID,0.391016,
2010-04-01, 01:33:05,VALID,918.787,VALID,0.2,VALID,97.6712,VALID,0,VALID,19.6248,VALID,110,VALID,0.626953,
2010-04-01, 01:34:05,VALID,918.758,VALID,0,VALID,97.6865,VALID,0,VALID,19.6248,VALID,110,VALID,0.596875,
2010-04-01, 01:35:05,VALID,918.74,VALID,0,VALID,97.6788,VALID,0,VALID,19.5843,VALID,110,VALID,0.680859,
2010-04-01, 01:36:05,VALID,918.756,VALID,0,VALID,97.6865,VALID,0,VALID,19.5858,VALID,110,VALID,0.778906,
2010-04-01, 01:37:05,VALID,918.739,VALID,0,VALID,97.6865,VALID,0,VALID,19.5663,VALID,110,VALID,0.8,
2010-04-01, 01:38:05,VALID,918.724,VALID,0,VALID,97.6712,VALID,0,VALID,19.6053,VALID,110,VALID,0.7875,
2010-04-01, 01:39:05,VALID,918.697,VALID,0,VALID,97.6865,VALID,0,VALID,19.6263,VALID,110,VALID,0.662109,
2010-04-01, 01:40:05,VALID,918.708,VALID,0.2,VALID,97.7017,VALID,0,VALID,19.5858,VALID,110,VALID,0.844141,
2010-04-01, 01:41:05,VALID,918.674,VALID,0,VALID,97.6865,VALID,0,VALID,19.5858,VALID,110,VALID,1.14258,
2010-04-01, 01:42:05,VALID,918.694,VALID,0,VALID,97.7017,VALID,0,VALID,19.6053,VALID,110,VALID,0.940625,
2010-04-01, 01:43:05,VALID,918.667,VALID,0,VALID,97.7246,VALID,0,VALID,19.6248,VALID,110,VALID,0.777734,
2010-04-01, 01:44:05,VALID,918.637,VALID,0,VALID,97.6941,VALID,0,VALID,19.5858,VALID,110,VALID,0.747656,
2010-04-01, 01:45:05,VALID,918.632,VALID,0,VALID,97.6788,VALID,0,VALID,19.5858,VALID,110,VALID,0.860156,
2010-04-01, 01:46:05,VALID,918.607,VALID,0.2,VALID,97.7169,VALID,0,VALID,19.5663,VALID,110,VALID,0.873828,
2010-04-01, 01:47:05,VALID,918.593,VALID,0,VALID,97.6941,VALID,0,VALID,19.6068,VALID,110,VALID,0.721094,
2010-04-01, 01:48:05,VALID,918.599,VALID,0,VALID,97.7093,VALID,0,VALID,19.5858,VALID,110,VALID,0.695313,
2010-04-01, 01:49:05,VALID,918.594,VALID,0,VALID,97.7017,VALID,0,VALID,19.5858,VALID,110,VALID,0.566797,
2010-04-01, 01:50:05,VALID,918.586,VALID,0.2,VALID,97.7017,VALID,0,VALID,19.5858,VALID,110,VALID,0.416016,
2010-04-01, 01:51:05,VALID,918.569,VALID,0,VALID,97.7017,VALID,0,VALID,19.5663,VALID,110,VALID,0.386719,
2010-04-01, 01:52:05,VALID,918.575,VALID,0.2,VALID,97.6941,VALID,0,VALID,19.5858,VALID,110,VALID,0.258594,
2010-04-01, 01:53:05,VALID,918.585,VALID,0,VALID,97.7169,VALID,0,VALID,19.5663,VALID,110,VALID,0.494922,
2010-04-01, 01:54:05,VALID,918.552,VALID,0.2,VALID,97.7093,VALID,0,VALID,19.5663,VALID,110,VALID,0.229687,
2010-04-01, 01:55:05,VALID,918.533,VALID,0,VALID,97.6941,VALID,0,VALID,19.5468,VALID,110,VALID,0.55625,
2010-04-01, 01:56:05,VALID,918.496,VALID,0,VALID,97.7017,VALID,0,VALID,19.5663,VALID,110,VALID,0.710547,
2010-04-01, 01:57:05,VALID,918.488,VALID,0.2,VALID,97.7017,VALID,0,VALID,19.5468,VALID,110,VALID,0.674219,
2010-04-01, 01:58:05,VALID,918.478,VALID,0,VALID,97.7246,VALID,0,VALID,19.5468,VALID,110,VALID,0.822656,
2010-04-01, 01:59:05,VALID,918.439,VALID,0,VALID,97.7093,VALID,0.107441,VALID,19.5468,VALID,110,VALID,1.20117,
2010-04-01, 02:00:05,VALID,918.451,VALID,0,VALID,97.7017,VALID,0.107441,VALID,19.5273,VALID,110,VALID,0.900781,
2010-04-01, 02:01:05,VALID,918.421,VALID,0.2,VALID,97.7169,VALID,0,VALID,19.5273,VALID,110,VALID,1.18398,
2010-04-01, 02:02:05,VALID,918.42,VALID,0,VALID,97.7017,VALID,0,VALID,19.5273,VALID,111,VALID,1.28477,
2010-04-01, 02:03:05,VALID,918.403,VALID,0,VALID,97.7246,VALID,0,VALID,19.5468,VALID,110,VALID,1.30703,
2010-04-01, 02:04:05,VALID,918.368,VALID,0,VALID,97.7093,VALID,0,VALID,19.5273,VALID,111,VALID,1.00742,
2010-04-01, 02:05:05,VALID,918.39,VALID,0,VALID,97.7169,VALID,0,VALID,19.5663,VALID,111,VALID,1.08281,
2010-04-01, 02:06:05,VALID,918.364,VALID,0,VALID,97.7017,VALID,0,VALID,19.5663,VALID,111,VALID,0.886719,
2010-04-01, 02:07:05,VALID,918.377,VALID,0,VALID,97.7246,VALID,0,VALID,19.5663,VALID,111,VALID,1.14219,
2010-04-01, 02:08:05,VALID,918.365,VALID,0,VALID,97.7398,VALID,0,VALID,19.6068,VALID,111,VALID,0.814453,
2010-04-01, 02:09:05,VALID,918.347,VALID,0.2,VALID,97.7322,VALID,0,VALID,19.5858,VALID,111,VALID,0.95625,
2010-04-01, 02:10:05,VALID,918.324,VALID,0,VALID,97.7017,VALID,0.107441,VALID,19.6053,VALID,111,VALID,0.827344,
2010-04-01, 02:11:05,VALID,918.325,VALID,0,VALID,97.7246,VALID,0,VALID,19.6053,VALID,111,VALID,1.26523,
2010-04-01, 02:12:05,VALID,918.339,VALID,0,VALID,97.7322,VALID,0,VALID,19.5858,VALID,111,VALID,0.542578,
2010-04-01, 02:13:05,VALID,918.337,VALID,0.2,VALID,97.7246,VALID,0,VALID,19.6053,VALID,110,VALID,0.966016,
2010-04-01, 02:14:05,VALID,918.308,VALID,0,VALID,97.7246,VALID,0,VALID,19.5858,VALID,110,VALID,0.341016,
2010-04-01, 02:15:05,VALID,918.287,VALID,0,VALID,97.7093,VALID,0,VALID,19.6068,VALID,111,VALID,0.688281,
2010-04-01, 02:16:05,VALID,918.249,VALID,0,VALID,97.7093,VALID,0,VALID,19.5858,VALID,111,VALID,1.12734,
2010-04-01, 02:17:05,VALID,918.202,VALID,0,VALID,97.7169,VALID,0,VALID,19.5663,VALID,111,VALID,1.08672,
2010-04-01, 02:18:05,VALID,918.202,VALID,0,VALID,97.7169,VALID,0,VALID,19.5468,VALID,113,VALID,1.25234,
2010-04-01, 02:19:05,VALID,918.153,VALID,0.2,VALID,97.7093,VALID,0,VALID,19.5663,VALID,113,VALID,0.705859,
2010-04-01, 02:20:05,VALID,918.164,VALID,0,VALID,97.7169,VALID,0,VALID,19.5468,VALID,127,VALID,1.27383,
2010-04-01, 02:21:05,VALID,918.124,VALID,0,VALID,97.7246,VALID,0,VALID,19.5663,VALID,130,VALID,1.09258,
2010-04-01, 02:22:05,VALID,918.08,VALID,0,VALID,97.7169,VALID,0,VALID,19.5663,VALID,143,VALID,1.15117,
2010-04-01, 02:23:05,VALID,918.058,VALID,0,VALID,97.7246,VALID,0,VALID,19.5663,VALID,148,VALID,1.18594,
2010-04-01, 02:24:05,VALID,918.062,VALID,0,VALID,97.7246,VALID,0,VALID,19.5663,VALID,119,VALID,1.22852,
2010-04-01, 02:25:05,VALID,918.013,VALID,0.2,VALID,97.7322,VALID,0,VALID,19.5663,VALID,119,VALID,0.875391,
2010-04-01, 02:26:05,VALID,918.023,VALID,0,VALID,97.7322,VALID,0,VALID,19.5858,VALID,119,VALID,0.980859,
2010-04-01, 02:27:05,VALID,918.001,VALID,0,VALID,97.7398,VALID,0,VALID,19.6068,VALID,132,VALID,1.26836,
2010-04-01, 02:28:05,VALID,917.992,VALID,0,VALID,97.7322,VALID,0,VALID,19.5843,VALID,147,VALID,1.27422,
2010-04-01, 02:29:05,VALID,917.93,VALID,0,VALID,97.7474,VALID,0,VALID,19.5858,VALID,139,VALID,1.18828,
2010-04-01, 02:30:05,VALID,917.935,VALID,0,VALID,97.7322,VALID,0,VALID,19.5663,VALID,127,VALID,0.776172,
2010-04-01, 02:31:05,VALID,917.855,VALID,0,VALID,97.7093,VALID,0,VALID,19.5858,VALID,135,VALID,1.14492,
2010-04-01, 02:32:05,VALID,917.82,VALID,0,VALID,97.7246,VALID,0,VALID,19.6053,VALID,154,VALID,1.15586,
2010-04-01, 02:33:05,VALID,917.8,VALID,0,VALID,97.7322,VALID,0,VALID,19.6248,VALID,143,VALID,1.17539,
2010-04-01, 02:34:05,VALID,917.759,VALID,0,VALID,97.7322,VALID,0,VALID,19.6248,VALID,153,VALID,1.68398,
2010-04-01, 02:35:05,VALID,917.728,VALID,0,VALID,97.7322,VALID,0,VALID,19.6038,VALID,169,VALID,1.43594,
2010-04-01, 02:36:05,VALID,917.716,VALID,0,VALID,97.7017,VALID,0,VALID,19.6248,VALID,169,VALID,1.16523,
2010-04-01, 02:37:05,VALID,917.684,VALID,0,VALID,97.7246,VALID,0,VALID,19.6443,VALID,145,VALID,1.34258,
2010-04-01, 02:38:05,VALID,917.666,VALID,0.2,VALID,97.7169,VALID,0.107441,VALID,19.6638,VALID,179,VALID,1.64844,
2010-04-01, 02:39:05,VALID,917.681,VALID,0,VALID,97.7017,VALID,0,VALID,19.6428,VALID,158,VALID,0.864062,
2010-04-01, 02:40:05,VALID,917.71,VALID,0,VALID,97.7246,VALID,0.107441,VALID,19.6623,VALID,189,VALID,1.3332,
2010-04-01, 02:41:05,VALID,917.72,VALID,0,VALID,97.7169,VALID,0,VALID,19.6638,VALID,141,VALID,0.897656,
2010-04-01, 02:42:05,VALID,917.748,VALID,0,VALID,97.7322,VALID,0,VALID,19.6428,VALID,165,VALID,0.965234,
2010-04-01, 02:43:05,VALID,917.796,VALID,0,VALID,97.7169,VALID,0,VALID,19.6638,VALID,75,VALID,0.451562,
2010-04-01, 02:44:05,VALID,917.815,VALID,0,VALID,97.7322,VALID,0,VALID,19.6833,VALID,182,VALID,0.532422,
2010-04-01, 02:45:05,VALID,917.825,VALID,0,VALID,97.7246,VALID,0,VALID,19.6833,VALID,126,VALID,0.726953,
2010-04-01, 02:46:05,VALID,917.779,VALID,0,VALID,97.7246,VALID,0,VALID,19.6833,VALID,126,VALID,0.825781,
2010-04-01, 02:47:05,VALID,917.753,VALID,0,VALID,97.7169,VALID,0,VALID,19.6833,VALID,126,VALID,0.607813,
2010-04-01, 02:48:05,VALID,917.727,VALID,0,VALID,97.7169,VALID,0,VALID,19.7028,VALID,126,VALID,0.759375,
2010-04-01, 02:49:05,VALID,917.738,VALID,0,VALID,97.7322,VALID,0,VALID,19.6833,VALID,178,VALID,1.1168,
2010-04-01, 02:50:05,VALID,917.739,VALID,0,VALID,97.7093,VALID,0,VALID,19.6833,VALID,140,VALID,0.796094,
2010-04-01, 02:51:05,VALID,917.709,VALID,0,VALID,97.6941,VALID,0,VALID,19.6833,VALID,116,VALID,0.667969,
2010-04-01, 02:52:05,VALID,917.712,VALID,0,VALID,97.7093,VALID,0,VALID,19.6833,VALID,151,VALID,1.675,
2010-04-01, 02:53:05,VALID,917.637,VALID,0,VALID,97.7169,VALID,0,VALID,19.6833,VALID,134,VALID,1.0418,
2010-04-01, 02:54:05,VALID,917.628,VALID,0,VALID,97.7017,VALID,0,VALID,19.6833,VALID,141,VALID,1.37617,
2010-04-01, 02:55:05,VALID,917.568,VALID,0,VALID,97.7169,VALID,0,VALID,19.6638,VALID,140,VALID,1.36758,
2010-04-01, 02:56:05,VALID,917.555,VALID,0,VALID,97.7093,VALID,0,VALID,19.6443,VALID,146,VALID,1.07187,
2010-04-01, 02:57:05,VALID,917.557,VALID,0,VALID,97.7017,VALID,0,VALID,19.6638,VALID,159,VALID,1.14648,
2010-04-01, 02:58:05,VALID,917.536,VALID,0,VALID,97.7017,VALID,0,VALID,19.6833,VALID,183,VALID,1.19609,
2010-04-01, 02:59:05,VALID,917.489,VALID,0,VALID,97.6941,VALID,0,VALID,19.6443,VALID,181,VALID,1.88086,
2010-04-01, 03:00:05,VALID,917.496,VALID,0,VALID,97.7093,VALID,0,VALID,19.6443,VALID,175,VALID,1.29414,
2010-04-01, 03:01:05,VALID,917.475,VALID,0,VALID,97.7093,VALID,0,VALID,19.6248,VALID,164,VALID,1.37969,
2010-04-01, 03:02:05,VALID,917.473,VALID,0,VALID,97.7093,VALID,0,VALID,19.6443,VALID,193,VALID,0.839453,
2010-04-01, 03:03:05,VALID,917.475,VALID,0,VALID,97.7246,VALID,0,VALID,19.6248,VALID,193,VALID,0.904688,
2010-04-01, 03:04:05,VALID,917.446,VALID,0,VALID,97.7093,VALID,0,VALID,19.6248,VALID,193,VALID,1.38711,
2010-04-01, 03:05:05,VALID,917.433,VALID,0,VALID,97.7169,VALID,0,VALID,19.6053,VALID,154,VALID,1.5543,
2010-04-01, 03:06:05,VALID,917.437,VALID,0,VALID,97.6941,VALID,0,VALID,19.6248,VALID,141,VALID,0.580469,
2010-04-01, 03:07:05,VALID,917.466,VALID,0,VALID,97.7093,VALID,0,VALID,19.6053,VALID,141,VALID,0.948438,
2010-04-01, 03:08:05,VALID,917.464,VALID,0,VALID,97.7169,VALID,0,VALID,19.5843,VALID,121,VALID,0.965234,
2010-04-01, 03:09:05,VALID,917.43,VALID,0,VALID,97.7093,VALID,0,VALID,19.5858,VALID,171,VALID,1.22539,
2010-04-01, 03:10:05,VALID,917.423,VALID,0,VALID,97.7322,VALID,0,VALID,19.5858,VALID,146,VALID,1.15313,
2010-04-01, 03:11:05,VALID,917.36,VALID,0,VALID,97.7169,VALID,0,VALID,19.5663,VALID,166,VALID,1.17617,
2010-04-01, 03:12:04,VALID,917.368,VALID,0,VALID,97.7093,VALID,0,VALID,19.5858,VALID,149,VALID,1.01953,
2010-04-01, 03:13:04,VALID,917.362,VALID,0,VALID,97.7017,VALID,0,VALID,19.5858,VALID,138,VALID,0.933594,
2010-04-01, 03:14:04,VALID,917.362,VALID,0,VALID,97.7169,VALID,0,VALID,19.6038,VALID,139,VALID,1.61914,
2010-04-01, 03:15:04,VALID,917.377,VALID,0,VALID,97.7169,VALID,0,VALID,19.6248,VALID,133,VALID,0.557422,
2010-04-01, 03:16:04,VALID,917.384,VALID,0,VALID,97.7169,VALID,0,VALID,19.6248,VALID,126,VALID,0.89375,
2010-04-01, 03:17:04,VALID,917.342,VALID,0,VALID,97.7246,VALID,0,VALID,19.6443,VALID,126,VALID,0.295703,
2010-04-01, 03:18:04,VALID,917.348,VALID,0,VALID,97.7246,VALID,0,VALID,19.6443,VALID,126,VALID,0.103906,
2010-04-01, 03:19:04,VALID,917.303,VALID,0,VALID,97.7093,VALID,0,VALID,19.6638,VALID,126,VALID,0.739844,
2010-04-01, 03:20:04,VALID,917.33,VALID,0,VALID,97.7246,VALID,0.107441,VALID,19.6038,VALID,126,VALID,1.8457,
2010-04-01, 03:21:04,VALID,917.285,VALID,0,VALID,97.6941,VALID,0,VALID,19.6443,VALID,136,VALID,1.79297,
2010-04-01, 03:22:04,VALID,917.302,VALID,0,VALID,97.7169,VALID,0,VALID,19.6638,VALID,123,VALID,1.73047,
2010-04-01, 03:23:04,VALID,917.284,VALID,0,VALID,97.6788,VALID,0.107441,VALID,19.6818,VALID,136,VALID,2.28086,
2010-04-01, 03:24:04,VALID,917.336,VALID,0,VALID,97.6865,VALID,0,VALID,19.7418,VALID,127,VALID,1.36016,
2010-04-01, 03:25:04,VALID,917.31,VALID,0,VALID,97.6865,VALID,0,VALID,19.7013,VALID,126,VALID,1.95703,
2010-04-01, 03:26:04,VALID,917.292,VALID,0,VALID,97.6636,VALID,0,VALID,19.6818,VALID,130,VALID,1.47891,
2010-04-01, 03:27:04,VALID,917.268,VALID,0,VALID,97.6941,VALID,0,VALID,19.7028,VALID,103,VALID,1.18398,
2010-04-01, 03:28:04,VALID,917.212,VALID,0,VALID,97.6788,VALID,0,VALID,19.6623,VALID,122,VALID,2.20781,
2010-04-01, 03:29:04,VALID,917.21,VALID,0,VALID,97.6712,VALID,0,VALID,19.6623,VALID,119,VALID,1.75469,
2010-04-01, 03:30:04,VALID,917.189,VALID,0,VALID,97.6865,VALID,0,VALID,19.6428,VALID,122,VALID,1.93906,
2010-04-01, 03:31:04,VALID,917.173,VALID,0,VALID,97.6636,VALID,0,VALID,19.6833,VALID,115,VALID,1.84961,
2010-04-01, 03:32:04,VALID,917.141,VALID,0,VALID,97.6712,VALID,0,VALID,19.7028,VALID,134,VALID,1.27188,
2010-04-01, 03:33:04,VALID,917.156,VALID,0,VALID,97.6865,VALID,0,VALID,19.6833,VALID,120,VALID,2.07578,
2010-04-01, 03:34:04,VALID,917.138,VALID,0,VALID,97.6636,VALID,0,VALID,19.6638,VALID,122,VALID,1.6793,
2010-04-01, 03:35:04,VALID,917.129,VALID,0,VALID,97.6788,VALID,0,VALID,19.6428,VALID,115,VALID,1.53125,
2010-04-01, 03:36:04,VALID,917.125,VALID,0,VALID,97.6636,VALID,0,VALID,19.6623,VALID,101,VALID,1.4625,
2010-04-01, 03:37:04,VALID,917.143,VALID,0,VALID,97.6331,VALID,0,VALID,19.6833,VALID,66,VALID,1.05625,
2010-04-01, 03:38:04,VALID,917.097,VALID,0,VALID,97.656,VALID,0,VALID,19.6623,VALID,121,VALID,1.26719,
2010-04-01, 03:39:04,VALID,917.118,VALID,0,VALID,97.656,VALID,0,VALID,19.6818,VALID,97,VALID,1.89766,
2010-04-01, 03:40:04,VALID,917.1,VALID,0,VALID,97.6483,VALID,0.107441,VALID,19.6833,VALID,100,VALID,1.44258,
2010-04-01, 03:41:04,VALID,917.096,VALID,0,VALID,97.6407,VALID,0.107441,VALID,19.6833,VALID,79,VALID,1.13242,
2010-04-01, 03:42:04,VALID,917.08,VALID,0,VALID,97.6407,VALID,0,VALID,19.6428,VALID,79,VALID,1.06875,
2010-04-01, 03:43:04,VALID,917.096,VALID,0,VALID,97.6407,VALID,0,VALID,19.6443,VALID,40,VALID,0.752734,